SCP
0 0 0 0 0 0 0 0 0 0 0 0 0 0 0 0 0 0 0 0 0 0 0 0 0 0 0 0 0 0 0 0 0 0 0 0 0 0 0 0 0 0 0
0 0 0 0 0 0 0 0 0 0 0 0 0 0 0 0 0 0 0 0 0 0 0 0 0 0 0 0 0 0 0 0 0 0 0 0 0 0 0 0 0 0 0
0 0 0 0 0 0 0 0 0 0 0 0 0 0 0 0 0 0 0 0 0 0 0 0 0 0 0 0 0 0 0 0 0 0 0 0 0 0 0 0 0 0 0
0 0 0 0 0 0 0 0 0 0 0 0 0 0 0 0 0 0 0 0 0 0 0 0 0 0 0 0 0 0 0 0 0 0 0 0 0 0 0 0 0 0 0
0 0 0 0 0 0 0 0 0 0 0 0 0 0 0 0 0 0 0 0 0 0 0 0 0 0 0 0 0 0 0 0 0 0 0 0 0 0 0 0 0 0 0
0 0 0 0 0 0 0 0 0 0 0 0 0 0 0 0 0 0 0 0 0 0 0 0 0 0 0 0 0 0 0 0 0 0 0 0 0 0 0 0 0 0 0
0 0 0 0 0 0 0 0 0 0 0 0 0 0 0 0 0 0 0 0 0 0 0 0 0 0 0 0 0 0 0 0 0 0 0 0 0 0 0 0 0 0 0
0 0 0 0 0 0 0 0 0 0 0 0 0 0 0 0 0 0 0 0 0 0 0 0 0 0 0 0 0 0 0 0 0 0 0 0 0 0 0 0 0 0 0
0 0 0 0 0 0 0 0 0 0 0 0 0 0 0 0 0 0 0 0 0 0 0 0 0 0 0 0 0 0 0 0 0 0 0 0 0 0 0 0 0 0 0
0 0 0 0 0 0 0 0 0 0 0 0 0 0 0 0 0 0 0 0 0 0 0 0 0 0 0 0 0 0 0 0 0 0 0 0 0 0 0 0 0 0 0
0 0 0 0 0 0 0 0 0 0 0 0 0 0 0 0 0 0 0 0 0 0 0 0 0 0 0 0 0 0 0 0 0 0 0 0 0 0 0 0 0 0 0
0 0 0 0 0 0 0 0 0 0 0 0 0 0 0 0 0 0 0 0 0 0 0 0 0 0 0 0 0 0 0 0 0 0 0 0 0 0 0 0 0 0 0
0 0 0 0 0 0 0 0 0 0 0 0 0 0 0 0 0 0 0 0 0 0 0 0 0 0 0 0 0 0 0 0 0 0 0 0 0 0 0 0 0 0 0
0 0 0 0 0 0 0 0 0 0 0 0 0 0 0 0 0 0 0 0 0 0 0 0 0 0 0 0 0 0 0 0 0 0 0 0 0 0 0 0 0 0 0
0 0 0 0 0 0 0 0 0 0 0 0 0 0 0 0 0 0 0 0 0 0 0 0 0 0 0 0 0 0 0 0 0 0 0 0 0 0 0 0 0 0 0
0 0 0 0 0 0 0 0 0 0 0 0 0 0 0 0 0 0 0 0 0 0 0 0 0 0 0 0 0 0 0 0 0 0 0 0 0 0 0 0 0 0 0
0 0 0 0 0 0 0 0 0 0 0 0 0 0 0 0 0 0 0 0 0 0 0 0 0 0 0 0 0 0 0 0 0 0 0 0 0 0 0 0 0 0 0
0 0 0 0 0 0 0 0 0 0 0 0 0 0 0 0 0 0 0 0 0 0 0 0 0 0 0 0 0 0 0 0 0 0 0 0 0 0 0 0 0 0 0
0 0 0 0 0 0 0 0 0 0 0 0 0 0 0 0 0 0 0 0 0 0 0 0 0 0 0 0 0 0 0 0 0 0 0 0 0 0 0 0 0 0 0
0 0 0 0 0 0 0 0 0 0 0 0 0 0 0 0 0 0 0 0 0 0 0 0 0 0 0 0 0 0 0 0 0 0 0 0 0 0 0 0 0 0 0
0 0 0 0 0 0 0 0 0 0 0 0 0 0 0 0 0 0 0 0 0 0 0 0 0 0 0 0 0 0 0 0 0 0 0 0 0 0 0 0 0 0 0
0 0 0 0 0 0 0 0 0 0 0 0 0 0 0 0 0 0 0 0 0 0 0 0 0 0 0 0 0 0 0 0 0 0 0 0 0 0 0 0 0 0 0
0 0 0 0 0 0 0 0 0 0 0 0 0 0 0 0 0 0 0 0 0 0 0 0 0 0 0 0 0 0 0 0 0 0 0 0 0 0 0 0 0 0 0
0 0 0 0 0 0 0 0 0 0 0 0 0 0 0 0 0 0 0 0 0 0 0 0 0 0 0 0 0 0 -0 0 0 0 0 0 0 0 0 0 0 0 0
0 0 0 0 0 0 0 0 0 0 0 0 0 0 0 0 0 0 0 0 0 0 0 0 0 0 0 0 0 0 0 0 0 0 0 0 0 0 0 0 0 0 0
0 0 0 0 0 0 0 0 0 0 0 0 0 0 0 0 0 0 0 0 0 0 0 0 0 0 0 0 0 0 0 0 0 0 0 0 0 0 0 0 0 0 0
Wind_Speed
8 8 9 8 8 8 7 7 7 6 6 6 6 6 7 7 6 6 6 6 6 6 6 6 6 6 4 4 3 4 4 3 3 3 2 3 2 1 1 1 2 3 5
8 8 8 8 8 8 7 7 7 7 6 6 6 7 7 7 6 6 6 6 6 6 6 6 6 6 6 5 4 4 3 2 3 3 2 2 1 1 1 2 2 2 4
8 9 9 8 8 8 7 6 6 6 6 6 6 6 6 6 6 6 6 6 6 6 6 6 6 6 6 5 5 4 3 3 2 2 2 1 1 0 0 2 1 0 1
8 9 8 8 7 7 6 6 6 6 6 6 6 6 6 7 7 6 5 5 5 5 6 6 7 7 6 6 5 6 4 3 2 1 1 1 1 1 1 2 1 1 1
8 8 8 7 6 6 6 6 6 6 6 5 5 6 6 7 7 6 4 5 4 5 5 5 5 6 7 6 5 5 5 4 3 2 2 2 2 2 2 2 2 1 1
7 7 7 6 6 6 5 5 5 5 5 5 5 7 7 7 9 11 8 4 4 3 3 3 4 3 3 3 4 4 4 4 4 3 3 3 3 3 3 3 2 2 1
6 6 6 5 5 4 5 5 4 4 4 4 5 6 7 7 10 11 11 4 3 3 3 2 4 6 5 4 2 1 1 1 1 1 3 3 2 3 3 4 3 2 2
5 5 5 4 5 5 5 4 4 3 3 4 5 6 6 7 9 10 11 3 2 3 4 5 5 6 7 7 5 3 1 0 1 1 1 2 2 2 3 3 4 4 2
5 5 5 5 5 5 4 4 3 3 3 3 4 5 5 5 7 8 9 3 1 4 5 6 5 5 7 9 5 4 4 3 1 2 3 4 5 6 3 3 4 3 2
5 5 4 4 4 4 4 3 3 2 3 4 5 5 5 5 5 8 10 3 3 3 4 5 8 6 6 8 5 5 5 5 6 4 4 6 6 6 6 4 3 3 2
4 4 4 4 3 4 3 2 2 2 3 4 4 4 5 4 4 7 9 5 5 3 3 3 3 4 5 6 4 2 3 4 6 5 3 2 2 1 2 3 3 1 1
4 4 4 3 3 4 3 2 2 2 3 3 3 4 4 3 4 4 5 5 5 4 3 3 2 3 5 6 5 5 8 7 4 2 2 2 1 1 1 1 2 2 3
4 4 3 4 3 3 2 2 2 1 1 2 3 3 4 3 2 2 3 5 5 3 3 3 2 3 5 5 5 7 7 4 2 3 2 2 1 2 2 1 1 2 3
4 4 3 3 3 2 2 3 4 4 4 3 3 3 3 4 3 3 2 1 2 2 3 3 4 5 5 5 4 3 2 1 2 2 2 2 2 2 2 1 1 2 2
3 3 3 3 4 3 5 5 6 6 5 5 5 4 4 4 3 4 5 5 5 5 6 3 3 2 2 1 1 1 1 1 2 3 2 2 2 2 2 2 1 2 2
3 2 2 3 3 4 5 5 8 6 6 8 7 5 4 5 2 3 5 6 7 8 5 3 2 2 2 2 2 2 2 2 2 3 3 2 2 2 2 2 2 2 2
2 1 1 2 2 3 4 4 4 3 2 2 3 3 2 1 1 4 6 9 10 6 3 2 1 2 2 2 2 2 2 2 2 2 2 2 2 3 3 3 2 2 3
2 2 1 1 1 2 2 3 4 4 4 3 3 4 4 3 4 5 6 6 5 3 2 1 2 2 2 2 2 2 3 3 2 3 3 3 3 3 3 3 2 2 3
1 1 1 1 1 2 2 2 3 3 3 3 5 4 6 6 7 8 6 4 4 2 1 2 2 2 2 2 2 2 2 2 2 2 3 3 3 3 3 3 3 4 3
2 1 1 2 1 2 1 1 2 2 2 2 3 3 4 5 4 4 4 3 2 2 2 2 2 1 1 2 2 2 2 2 3 3 3 3 3 3 4 4 3 3 3
3 3 4 4 2 1 1 1 1 1 1 2 3 3 1 3 2 2 2 1 1 2 2 3 3 1 1 2 3 4 4 3 4 4 4 4 4 4 4 3 3 3 3
2 2 2 2 1 2 1 1 1 1 1 2 4 5 4 3 1 0 1 1 1 1 1 2 3 3 3 3 3 3 4 4 5 5 5 6 5 5 5 4 4 4 3
3 3 2 2 2 3 2 1 1 1 1 1 1 3 4 1 0 1 1 1 1 1 1 1 1 2 4 3 3 4 5 5 5 5 6 6 6 6 5 5 6 5 4
4 3 3 3 3 3 2 1 1 1 1 1 1 1 1 2 1 1 0 1 1 1 1 1 1 2 3 2 2 5 5 4 5 5 7 7 7 7 6 5 5 6 4
5 3 3 3 2 2 1 1 1 1 1 1 1 1 1 1 2 2 1 1 1 1 1 1 0 1 2 3 5 5 3 3 3 4 5 6 8 8 7 7 5 5 4
4 3 3 2 2 1 1 1 1 1 1 1 1 1 1 1 1 1 1 1 1 1 1 1 2 1 1 3 5 5 2 1 2 4 5 5 7 7 7 6 7 6 5
Wind_Direction
64 64 62 63 64 68 69 70 69 67 65 65 63 64 62 59 60 66 67 65 66 60 56 54 47 36 27 26 31 34 36 52 89 90 102 125 141 168 162 265 236 176 169
74 73 70 66 65 67 67 67 69 68 65 66 64 66 67 63 58 62 69 66 65 63 57 51 45 43 33 26 25 37 40 56 87 95 108 127 158 175 216 261 258 145 170
78 78 73 68 65 64 64 65 66 70 70 66 64 65 66 64 62 60 63 67 67 64 60 58 49 42 34 24 24 21 26 46 65 106 126 123 129 114 303 303 326 32 226
79 78 74 70 68 67 65 64 61 59 63 65 65 65 62 59 52 49 58 64 66 64 60 57 51 44 31 9 32 25 25 20 30 70 98 93 77 32 30 328 345 343 321
81 81 78 75 71 68 66 63 59 57 61 61 64 64 61 56 42 31 44 76 72 71 74 76 73 70 57 36 39 26 21 17 21 32 58 60 45 33 18 330 7 338 333
84 83 83 83 76 73 75 72 66 63 61 62 66 67 62 54 35 30 27 43 64 70 82 97 113 98 87 72 55 41 31 31 25 17 34 39 30 23 4 343 354 350 326
94 93 92 92 86 80 81 78 73 75 77 77 80 82 77 52 33 25 14 3 52 50 48 47 64 68 40 25 8 264 245 239 251 21 21 14 16 17 359 339 335 319 288
108 101 94 88 83 82 84 79 74 70 72 76 81 83 81 54 30 18 357 345 75 72 58 55 66 56 32 9 348 3 26 154 222 208 13 351 11 3 342 313 304 307 297
110 103 97 87 85 86 83 79 81 84 80 82 84 85 86 63 29 16 359 323 99 87 74 53 60 69 35 11 360 6 18 12 334 251 260 272 280 280 282 317 325 339 341
104 101 100 99 96 94 88 84 86 94 92 89 89 89 89 78 37 22 3 356 51 82 97 90 66 54 32 19 6 7 13 358 342 321 278 262 253 253 237 228 284 326 340
106 106 103 97 97 97 88 88 96 92 89 91 99 97 91 86 65 34 24 17 9 30 80 85 73 38 20 4 347 346 347 316 303 297 286 269 255 245 214 208 221 268 318
109 107 104 97 89 93 92 91 95 98 107 108 109 110 106 97 64 46 30 27 6 15 40 60 71 0 341 328 323 324 324 315 291 313 354 10 351 328 290 253 229 240 238
103 100 102 100 90 99 106 106 111 116 101 114 128 128 124 118 93 30 360 5 11 17 17 359 320 293 307 297 277 297 314 316 341 357 355 346 324 296 289 286 271 255 262
112 107 107 111 106 88 63 62 55 40 40 51 66 84 95 84 57 23 354 8 355 8 347 305 278 273 280 294 296 275 264 325 343 319 324 324 318 320 324 324 325 317 307
119 119 112 101 97 86 70 50 61 57 50 40 35 49 66 73 44 15 7 13 3 8 335 305 280 271 251 254 310 327 337 14 356 339 336 332 337 339 332 327 328 325 326
137 137 133 130 128 124 117 96 60 80 83 72 60 59 74 87 89 7 359 348 339 342 337 313 321 342 357 6 359 355 18 36 1 332 328 335 338 330 328 326 334 336 325
123 117 100 110 126 134 136 136 134 112 82 74 70 65 80 114 340 331 334 330 314 313 298 289 340 11 9 5 1 1 11 11 332 315 324 343 343 334 333 328 338 341 330
136 122 140 122 125 142 147 152 155 161 166 171 194 222 231 249 278 295 313 319 295 262 256 308 21 21 22 12 7 2 350 348 352 346 346 349 342 334 329 329 331 335 324
136 119 131 140 178 158 163 165 165 166 162 159 158 184 226 242 263 272 284 276 295 337 3 19 29 26 17 360 348 343 327 324 340 332 330 334 331 328 327 325 323 326 313
121 74 281 250 209 177 172 150 138 144 153 155 159 163 180 205 225 226 222 253 300 358 10 5 15 22 357 328 330 338 345 348 352 348 349 347 337 329 326 324 320 318 314
171 173 214 242 224 134 92 91 109 135 153 152 126 115 176 252 227 192 184 194 10 16 23 352 327 342 14 2 9 7 5 359 5 5 357 345 332 323 316 314 315 318 322
208 197 197 196 140 104 112 183 171 162 157 148 145 160 203 256 284 81 96 89 65 43 55 10 341 6 29 15 15 3 6 14 14 9 354 338 328 322 322 323 324 324 323
219 207 189 163 128 141 216 218 172 187 162 129 149 156 171 213 8 64 68 85 86 62 55 45 343 23 36 22 21 32 29 26 8 353 339 328 325 322 320 320 322 325 333
239 217 196 172 178 188 197 181 192 219 194 166 166 157 155 158 136 100 85 73 74 83 76 53 30 46 48 24 44 65 53 28 354 340 338 322 314 310 313 317 318 322 328
243 229 213 191 185 182 182 209 215 215 201 169 189 218 206 178 173 178 167 158 186 184 157 126 85 36 44 52 67 79 80 47 18 342 319 308 307 308 309 312 314 315 320
233 235 236 202 165 157 203 234 225 234 234 218 203 210 241 224 190 175 166 169 202 166 157 165 163 144 110 90 91 105 108 39 351 327 307 294 294 299 312 313 317 318 326